Weather History for Prescott, AZ

Change the Weather History Date:

Sunday, May 25, 2014

  Actual Average Record
Temperature  
Mean Temperature 64 °F 64 °F  
Max Temperature 81 °F 80 °F 94 °F (1951)
Min Temperature 47 °F 49 °F 33 °F (1980)
Degree Days  
Heating Degree Days 1    
Month to date heating degree days 128  
Since 1 July heating degree days 3801  
Cooling Degree Days 0    
Month to date cooling degree days 18  
Year to date cooling degree days 18  
Growing Degree Days 14 (Base 50)    
Moisture  
Dew Point 32 °F    
Average Humidity 31    
Maximum Humidity 56    
Minimum Humidity 15    
Precipitation  
Precipitation 0.00 in 0.01 in 0.24 in (1994)
Month to date precipitation T 0.37  
Year to date precipitation 0.97 4.45  
Sea Level Pressure  
Sea Level Pressure 29.85 in    
Wind  
Wind Speed 6 mph (WSW)    
Max Wind Speed 17 mph    
Max Gust Speed 22 mph    
Visibility 10 miles    
Events      
T = Trace of Precipitation, MM = Missing Value Source: NWS Daily Summary

Daily Weather History Graph

Daily Weather History Graph

Search for Another Location

Airport:

Trip Planner

Search our weather history database for the weather conditions in past years. The results will help you decide how hot, cold, wet, or windy it might be!

Date:

Astronomy

May. 25, 2014 Rise Set
Actual Time 5:20 AM MST 7:33 PM MST
Civil Twilight 4:52 AM MST 8:01 PM MST
Nautical Twilight 4:17 AM MST 8:36 PM MST
Astronomical Twilight 3:39 AM MST 9:14 PM MST
Moon 3:19 AM MST (5/25) 4:44 PM MST (5/25)
Length of Visible Light 15h 09m
Length of Day
14h 12m
Waning Crescent, 10% of the Moon is Illuminated
May 25
Waning Crescent
May 28
New
Jun 5
First Quarter
Jun 12
Full
Jun 19
Last Quarter

Hourly Weather History & Observations

Time (MST) Temp. Dew Point Humidity Pressure Visibility Wind Dir Wind Speed Gust Speed Precip Events Conditions
12:53 AM 57.9 °F 34.0 °F 41% 29.85 in 10.0 mi WSW 3.5 mph - N/A   Scattered Clouds
1:53 AM 53.1 °F 34.0 °F 48% 29.86 in 10.0 mi SW 3.5 mph - N/A   Partly Cloudy
2:53 AM 53.1 °F 34.0 °F 48% 29.86 in 10.0 mi SW 3.5 mph - N/A   Clear
3:53 AM 52.0 °F 32.0 °F 47% 29.87 in 10.0 mi Calm Calm - N/A   Clear
4:53 AM 48.9 °F 33.1 °F 54% 29.88 in 10.0 mi Calm Calm - N/A   Clear
5:53 AM 48.9 °F 32.0 °F 52% 29.89 in 10.0 mi SW 3.5 mph - N/A   Clear
6:53 AM 51.1 °F 34.0 °F 52% 29.90 in 10.0 mi Calm Calm - N/A   Clear
8:53 AM 63.0 °F 36.0 °F 37% 29.89 in 10.0 mi NNW 3.5 mph - N/A   Clear
9:53 AM 66.9 °F 35.1 °F 31% 29.89 in 10.0 mi North 6.9 mph - N/A   Clear
10:53 AM 70.0 °F 33.1 °F 26% 29.89 in 10.0 mi Variable 5.8 mph - N/A   Partly Cloudy
11:53 AM 71.1 °F 28.9 °F 21% 29.88 in 10.0 mi Variable 3.5 mph - N/A   Scattered Clouds
12:53 PM 75.9 °F 27.0 °F 16% 29.85 in 10.0 mi North 13.8 mph 18.4 mph N/A   Scattered Clouds
1:53 PM 77.0 °F 28.0 °F 17% 29.84 in 10.0 mi East 4.6 mph - N/A   Clear
2:53 PM 81.0 °F 28.0 °F 14% 29.81 in 10.0 mi NNW 9.2 mph 17.3 mph N/A   Partly Cloudy
3:53 PM 80.1 °F 28.9 °F 15% 29.80 in 10.0 mi West 11.5 mph - N/A   Mostly Cloudy
4:53 PM 80.1 °F 30.0 °F 16% 29.79 in 10.0 mi WSW 10.4 mph - N/A   Mostly Cloudy
5:53 PM 79.0 °F 30.0 °F 17% 29.79 in 10.0 mi West 10.4 mph - N/A   Scattered Clouds
6:53 PM 75.9 °F 30.9 °F 19% 29.81 in 10.0 mi WSW 13.8 mph - N/A   Scattered Clouds
7:53 PM 73.0 °F 30.9 °F 21% 29.81 in 10.0 mi SW 10.4 mph - N/A   Partly Cloudy
8:53 PM 69.1 °F 33.1 °F 26% 29.83 in 10.0 mi SSW 6.9 mph - N/A   Clear
9:53 PM 71.1 °F 32.0 °F 24% 29.83 in 10.0 mi WSW 10.4 mph - N/A   Overcast
10:53 PM 66.0 °F 35.1 °F 32% 29.85 in 10.0 mi SSW 4.6 mph - N/A   Scattered Clouds
11:53 PM 64.9 °F 34.0 °F 32% 29.85 in 10.0 mi Calm Calm - N/A   Clear